Location: Newark
(36.2667°N, 50.0000°E)
Time: 21:43:38
(UTC+00:00)

Hubble Space Telescope - Pass Details

Date: 26 September 2020
Orbit: 536 x 540 km, 28.5° (Epoch: 26 October)

Event Time Altitude Azimuth Distance (km) Brightness Sun altitude
Exits shadow 01:19:02 12° 205° (SSW) 1,629 2.9 -15.3°
Maximum altitude 01:21:23 19° 166° (SSE) 1,311 2.8 -14.8°
Drops below altitude 10° 01:24:18 10° 120° (ESE) 1,776 4.2 -14.3°
Sets 01:27:03 0° 102° (ESE) 2,667 5.7 -13.7°
